Find Starlink 32005

NORAD ID: 60034 Int'l Des: 2024-111 Owner: SPXS Country: US Constellation: starlink operational
LEOCIRCULAR

現在のビュー

3D地球を読み込み中...

About Starlink 32005

Starlink 32005 (NORAD 60034) is a starlink constellation satellite (v2 mini) launched Jun 8, 2024 by SPXS of US. It operates in LEO, CIRCULAR orbit with a mass of 730.00 kg.

次回通過

Passes for default location (London). Set your location on the main map for personalized predictions.

高度履歴

Loading altitude history...

軌道要素

1 60034U 24111U 26265.30706436 -.00000144 00000-0 68732-5 0 9993
2 60034 53.1573 241.1418 0001401 86.1334 273.9829 15.34389959129054
Epoch: Sep 22, 2026 • Age: 16 hours

現在のステータス

高度 465.4 km
遠地点 / 近地点 N/A
速度 7.64 km/s
衛星直下点 39.06°N, 25.57°E
打ち上げ日 Jun 8, 2024
運用期間 2.2 years
タイプ internet

技術仕様

分類 Payload
質量 730.00 kg
乾燥質量 700.00 kg
長さ 0.30 m
スパン 29.00 m
形状 ? Box + pan
製造者 SPXS
バスタイプ Starlink V2M
フェーズステータス In Orbit
所有者/国 SPXS/US

Most Searched